Weather in Yueyang

China     29°22′43″N   113°07′48″E
temp.,
°C
wind,
m/s
gust,
m/s
humid.,
%
clouds,
%
prec.,
mm/h
press.,
hPa
HPBL,
m
18 april, sun
sun1823:00+15ne3867100 0.0 1021188
02:00+15ne3668100 0.0 1020132
05:00+14nne2472100 0.0 101981
08:00+14nnw2378100 0.0 102060
11:00+15nne2483100 0.1 1020157
14:00+15nw1184100 0.4 1019192
17:00+15s1290100 0.9 1018135
20:00+14ssw2291100 0.9 101881
19 april, mon
mon1923:00+14sw2291100 0.0 101992
02:00+14ssw2394100 0.0 1017149
05:00+13s1194100 0.0 101640
08:00+14nne1188100 0.0 1017176
11:00+18e127099 0.0 1017710
14:00+20se226462 0.0 1014990
17:00+20sse236883 0.0 1012876
20:00+18s117968 0.0 101411
20 april, tue
tue2023:00+18ese1181100 0.0 101411
02:00+17e1184100 0.1 101311
05:00+17ene118582 0.0 101227
08:00+18se1182100 0.2 1013158
11:00+20e1177100 0.1 1014394
14:00+22ese127462 0.4 1011625
17:00+20nne3385100 0.5 1010174
20:00+18ne2493100 0.7 1011140
21 april, wed
wed2123:00+19ene229392 0.3 101267
02:00+18nw019598 1.3 101117
05:00+18wnw0197100 1.3 101016
08:00+19w1198100 4.3 101255
11:00+20wnw1195100 2.1 1013283
14:00+19nnw3395100 3.1 1011296
17:00+19n349498 0.6 1010362
20:00+18nne3695100 0.7 1011344
22 april, thu
thu2223:00+18n2497100 4.8 1012286
02:00+17nw3498100 9.3 1010292
05:00+17nne2497100 0.8 1010261
08:00+17nne2495100 1.1 1011247
11:00+18nne339094 0.0 1012463
14:00+20nne448080 0.1 1010719
17:00+20ne348197 0.0 1009722
20:00+18ne259089 0.0 1011244